COSMOS 2547 (705K)

Last updated on Tue Dec 03 2024 00:03:12 GMT+0000 (Coordinated Universal Time)

1 46805U 20075A 24337.23769602 .00000082 00000+0 00000+0 0 9999 2 46805 64.5956 211.2461 0006134 234.2670 125.7772 2.13102835 31937
UTC large
Height (km)
Speed (km/s)
/
Latitude / Longitude
Inclination (degrees)
Orbital Period (minutes)
Azimuth
Elevation
Range (km)
Doppler Factor

Next 0 passes for location: London (51.5072 / 0.1276)

Sorry there are no passes over London.